Temp
54 53 54 54 54 54 54 55 55 54 54 56 55 54 53 51 49 47 46 48 51 57 61 60 61 66 66 63 65 65 66 63 61 62 62 63 63 62 60 55 54 54 52 50 50 50 52 53 54 55 56 57 58 58 58 57 56 57 59 58 58 57 57 58 58 61 65 67 66 63 63 62 62 60
54 55 55 54 55 54 53 55 55 54 54 53 54 54 54 53 51 50 47 46 50 53 56 60 60 64 64 66 64 64 64 62 64 64 63 62 63 57 56 57 54 54 52 51 50 52 51 52 53 54 56 57 57 57 56 56 55 57 59 57 57 58 59 59 60 61 63 63 63 61 61 62 61 60
55 56 56 54 54 54 54 54 54 54 53 56 54 53 53 54 52 51 50 47 47 54 55 55 60 61 63 65 63 63 62 64 64 63 62 65 61 58 57 54 55 54 54 53 52 54 55 53 52 54 55 56 57 56 56 57 57 56 56 55 56 58 60 59 59 61 62 62 63 63 62 61 60 60
56 55 54 54 54 54 53 53 54 54 54 53 55 55 55 54 53 53 51 49 50 51 55 54 58 61 60 62 62 62 64 66 61 61 62 63 60 63 62 61 57 55 54 53 53 53 53 54 53 52 52 54 55 55 55 56 55 55 54 55 55 57 59 59 59 61 62 62 61 61 61 61 60 59
55 55 55 54 54 54 54 53 53 53 55 54 54 54 54 54 51 54 52 50 50 50 51 55 57 58 58 60 61 60 59 59 61 61 61 61 60 62 63 63 58 56 55 54 53 53 52 53 53 50 49 51 51 52 52 53 52 53 53 52 52 54 57 58 59 59 61 61 61 59 60 59 59 58
58 55 53 55 54 56 54 54 56 55 54 56 55 54 55 53 53 51 52 49 50 51 51 53 55 57 58 56 57 56 57 58 59 61 62 64 63 64 62 61 62 58 57 55 53 52 51 51 51 51 50 49 50 51 51 51 51 51 50 49 51 53 55 56 57 57 59 60 60 59 58 58 58 59
56 55 54 53 54 56 54 54 55 53 54 55 55 54 53 53 53 53 55 53 50 49 50 52 54 54 55 55 58 59 59 60 61 60 60 62 64 66 63 63 63 60 56 55 54 54 54 53 51 50 50 50 49 49 49 50 50 49 49 49 50 51 51 52 52 54 55 58 59 59 59 57 58 59
55 53 54 54 53 53 52 55 53 52 53 52 52 52 53 52 52 53 51 52 52 47 49 48 53 55 54 54 58 62 62 60 59 60 61 60 62 61 64 64 63 63 59 55 55 55 54 52 51 50 50 50 49 49 50 49 49 48 49 48 48 48 49 49 49 50 53 56 58 59 58 58 58 60
56 54 55 54 53 52 52 52 52 51 51 54 52 52 52 52 52 53 51 51 52 49 48 49 51 52 54 57 58 58 57 57 59 60 60 61 61 60 60 62 66 60 59 58 57 54 53 53 52 51 50 49 49 49 49 49 49 48 49 48 48 48 48 48 48 48 49 51 53 57 59 58 60 62
55 56 55 54 53 52 51 51 52 52 52 52 50 51 51 52 51 49 50 51 50 49 48 47 48 49 53 52 53 57 57 56 56 56 57 56 57 56 57 58 61 61 64 60 61 57 57 56 55 54 52 51 50 49 49 49 49 49 49 49 49 49 48 48 47 47 47 48 49 50 54 58 60 63
55 57 55 53 53 52 51 51 51 50 48 50 47 48 48 49 48 48 48 49 49 48 48 48 47 48 49 50 50 53 56 56 55 53 53 53 55 54 52 56 58 58 58 57 57 57 56 56 57 56 54 53 52 51 50 49 50 49 49 49 48 48 48 48 48 47 47 47 47 48 48 52 58 61
56 56 55 53 53 53 51 50 50 49 47 46 47 46 48 46 46 45 46 46 46 46 46 45 45 46 47 47 48 51 52 52 51 54 52 49 50 52 53 55 54 56 56 56 59 59 59 57 57 56 55 54 51 50 50 51 51 51 50 49 48 48 48 48 48 47 47 47 47 47 47 48 49 56
56 56 55 54 53 56 56 52 52 51 50 48 49 45 47 46 45 44 44 45 43 44 44 44 45 44 46 46 46 46 46 46 45 48 48 48 49 50 50 53 56 57 55 55 55 56 56 56 56 57 56 57 56 54 52 52 52 50 49 48 48 48 48 48 48 48 47 47 47 47 47 47 48 48
58 56 55 57 60 55 53 50 47 47 48 50 51 47 47 47 46 44 43 43 43 43 42 42 42 42 42 42 44 45 45 47 47 47 46 45 47 48 48 49 50 51 51 50 49 52 55 54 54 55 55 56 56 56 56 56 54 53 50 49 49 48 48 48 48 48 47 47 47 47 46 46 47 46
57 57 58 57 56 54 52 50 44 46 46 47 48 48 49 49 46 44 43 42 42 43 44 43 42 41 42 43 44 43 45 46 44 43 44 44 44 42 42 42 46 48 50 48 47 49 53 54 53 54 54 55 55 56 57 53 52 51 50 50 50 49 49 48 48 47 47 47 47 46 46 46 46 46
56 56 56 56 56 55 55 55 52 50 47 45 44 43 43 43 44 45 45 44 42 41 42 42 42 42 42 43 43 44 45 43 43 44 43 43 41 41 40 40 41 46 49 46 45 46 51 53 52 52 54 55 54 56 54 53 53 53 54 53 51 50 49 48 48 47 47 46 46 45 46 46 46 45
56 55 55 55 55 57 57 56 53 52 50 47 44 43 43 43 42 40 39 40 45 44 42 42 42 42 43 43 44 44 44 43 44 43 42 42 40 40 40 41 43 45 47 46 45 45 48 50 50 50 53 54 55 56 53 53 52 52 52 52 53 50 49 48 48 47 47 46 45 45 45 45 45 44
55 55 55 54 54 55 55 54 53 52 49 48 47 43 41 41 43 42 40 40 40 41 42 42 42 44 44 44 44 46 46 45 44 43 43 41 40 41 42 44 44 46 48 45 44 43 46 48 49 49 51 53 54 53 52 51 51 51 51 51 50 50 49 48 48 48 47 46 45 45 44 44 44 44
54 54 54 54 53 53 53 52 51 51 47 45 45 43 43 42 42 43 44 43 41 42 41 41 42 43 44 45 45 46 46 46 46 45 44 44 44 44 44 43 44 45 46 46 43 41 45 48 48 48 49 50 51 52 52 51 51 51 51 51 51 51 50 49 47 47 47 46 45 44 43 43 43 43
53 53 52 51 52 53 52 46 46 48 49 49 47 44 43 42 42 43 46 46 45 45 43 42 42 42 43 42 42 42 42 42 43 44 44 42 41 40 40 40 42 41 44 46 45 42 44 47 47 48 49 48 49 50 51 50 51 51 51 51 50 48 48 47 47 45 45 44 44 43 43 43 42 42
52 52 52 52 52 52 51 44 42 43 46 47 45 42 41 41 41 42 43 44 43 42 41 41 41 40 40 41 41 41 41 41 41 39 38 37 39 38 37 39 39 40 40 42 45 44 43 44 45 46 47 49 48 49 50 51 50 50 51 48 46 46 46 46 45 44 43 43 43 43 42 43 42 42
54 54 56 54 53 51 48 39 38 39 43 41 39 39 38 38 37 38 39 42 41 41 41 41 41 41 41 42 42 43 42 42 43 40 37 39 38 37 37 36 38 39 41 41 45 43 42 45 46 45 46 45 45 47 48 49 50 49 45 42 42 42 43 43 43 43 43 43 43 43 42 42 42 44
48 48 44 45 45 44 40 37 38 39 41 40 38 36 36 36 35 36 36 36 37 37 38 38 40 40 41 42 42 43 43 42 44 42 41 40 38 37 37 37 37 36 38 42 44 40 41 42 42 41 41 40 42 44 47 48 48 46 45 44 43 42 42 42 42 42 42 42 42 42 42 41 42 44
43 44 42 40 37 38 38 38 38 38 39 40 38 37 36 35 36 37 36 37 37 35 36 35 36 37 37 38 38 38 39 41 43 42 41 41 40 38 38 38 38 37 39 41 45 44 44 44 40 42 40 38 35 41 46 46 46 47 46 46 44 42 42 42 42 42 42 42 42 42 42 41 42 44
43 44 40 40 38 38 38 38 37 38 38 39 39 37 36 37 39 38 35 37 39 35 35 36 36 36 36 36 37 36 37 39 40 40 40 40 40 40 39 39 39 40 42 45 45 46 42 43 42 42 39 39 40 39 40 43 45 45 47 47 46 45 44 43 42 43 42 42 41 41 41 41 41 43
44 45 43 41 39 37 37 37 38 38 38 38 38 37 38 38 38 37 36 36 35 34 34 33 33 34 34 33 35 36 37 39 40 40 39 40 41 42 43 43 41 40 42 47 44 47 45 43 44 42 42 40 40 40 38 40 43 44 45 45 45 44 43 42 42 42 42 42 42 41 41 41 41 41
44 45 43 41 39 39 39 39 38 38 38 38 37 37 37 37 37 37 35 34 34 32 33 33 33 33 35 36 36 37 38 39 39 39 39 40 42 42 44 45 46 45 46 47 48 48 46 45 46 44 42 42 39 40 38 37 39 42 43 41 41 41 42 41 40 40 41 41 41 41 40 40 40 41
44 43 42 41 39 39 38 38 38 38 38 37 37 37 37 37 37 35 34 33 33 33 32 33 34 36 38 39 39 39 40 41 41 41 42 41 41 41 43 44 45 46 47 47 47 47 47 45 45 45 44 42 40 39 38 41 40 40 40 39 40 39 38 39 38 39 40 40 40 40 40 40 40 40
41 39 38 39 39 39 39 39 39 39 39 38 38 37 37 39 34 34 33 32 33 33 34 36 38 39 39 40 40 41 42 42 42 42 42 43 43 43 43 43 44 45 45 46 47 47 47 45 44 45 44 44 42 42 42 40 41 40 39 39 39 40 41 40 37 36 37 38 39 39 39 39 39 40
38 39 38 39 39 39 39 38 36 35 38 38 38 37 38 34 33 34 34 35 35 36 37 37 37 39 40 40 41 41 42 41 41 41 41 41 41 42 42 42 42 44 45 46 47 47 47 46 45 44 44 44 43 42 43 42 41 42 39 38 38 38 39 38 37 36 37 36 37 38 40 40 40 40
40 40 39 39 38 37 38 37 37 36 36 34 35 34 35 35 36 36 35 36 35 35 36 36 37 39 40 40 39 38 38 39 40 41 40 39 40 40 41 39 39 40 43 45 46 46 46 46 45 45 42 42 43 43 43 43 41 42 41 40 38 36 37 37 37 36 36 36 38 39 40 39 40 40
37 36 37 36 35 35 35 36 35 34 34 34 35 33 34 34 35 38 39 39 37 37 38 39 39 37 38 37 38 38 38 38 38 39 39 38 38 39 39 36 36 37 39 41 43 45 42 45 45 45 44 43 41 42 43 42 41 41 41 41 40 41 39 38 36 38 40 39 38 38 38 39 39 39
33 31 32 31 31 31 31 31 31 30 31 32 34 36 37 35 35 34 32 34 35 37 37 36 36 35 36 35 36 36 36 35 35 36 36 38 38 38 38 35 35 35 35 37 39 41 43 44 44 44 43 43 43 42 40 38 40 41 40 39 40 40 39 39 39 39 39 38 36 37 37 39 40 39
28 27 29 28 30 32 30 31 30 31 32 33 34 34 35 33 31 32 33 35 36 36 35 35 35 35 35 34 35 35 35 35 35 36 36 36 37 35 34 34 34 36 36 36 38 39 40 41 42 42 43 43 43 43 42 40 38 39 39 39 39 39 39 39 39 39 39 36 36 35 35 36 38 39
27 29 29 30 30 29 30 30 32 33 33 33 32 32 31 31 31 32 32 33 32 33 34 34 35 34 34 34 34 33 34 34 35 35 36 35 35 34 34 33 33 34 35 35 36 38 39 38 38 37 37 38 38 41 44 44 40 39 39 39 40 39 38 39 38 39 38 36 36 35 34 35 36 38
28 28 29 30 29 30 30 31 33 33 31 30 30 30 30 31 31 31 30 31 31 32 32 33 33 33 33 33 33 34 34 34 33 34 33 34 33 33 33 33 33 34 35 35 35 37 37 36 35 34 33 33 33 33 35 43 44 41 38 37 39 38 38 39 38 38 36 35 35 35 34 33 34 36
28 28 29 29 30 29 31 31 31 31 30 30 30 30 30 31 32 32 33 33 33 33 33 33 33 34 33 33 33 33 33 33 32 33 33 33 33 33 33 33 33 34 34 35 36 36 36 35 35 34 33 32 31 31 34 38 39 42 41 38 37 38 38 37 36 35 35 36 35 35 34 34 34 35
29 29 31 31 31 31 31 31 31 31 30 30 30 30 31 31 32 33 34 34 34 34 34 33 33 34 34 34 33 33 33 33 33 33 33 33 32 32 32 32 33 33 33 34 35 35 35 35 34 34 33 31 31 32 32 34 36 37 40 40 37 36 36 36 35 35 34 35 35 34 35 34 34 34
29 30 30 31 31 33 31 31 31 31 32 32 33 33 32 32 33 33 33 33 34 33 33 33 33 33 33 33 33 33 32 32 32 32 32 33 33 32 32 33 32 33 33 33 33 34 34 33 33 33 33 33 32 33 35 34 34 36 36 38 38 36 36 37 36 35 34 33 33 33 33 34 35 36
32 31 32 34 32 31 31 32 33 34 34 33 32 31 31 31 32 33 33 33 33 33 33 33 33 33 33 33 33 33 33 32 32 32 32 33 33 33 33 33 33 33 33 33 33 33 33 33 34 34 34 35 36 37 36 35 35 33 34 36 39 39 38 37 36 35 33 33 34 33 32 33 32 33
31 30 30 32 35 34 33 33 34 33 32 31 31 32 33 33 33 33 33 33 33 33 33 33 33 33 33 33 33 33 32 32 33 33 33 33 33 33 33 33 32 33 32 32 33 33 33 35 36 36 37 37 36 36 35 33 32 34 34 34 37 38 39 39 38 36 34 34 34 33 32 31 31 32
30 30 31 33 34 35 35 34 33 31 31 30 31 33 33 33 33 34 34 33 33 33 33 33 33 33 33 33 33 33 32 32 32 32 33 33 32 33 33 33 32 33 32 31 32 34 36 36 36 35 35 35 34 32 31 33 33 33 32 33 34 37 39 39 38 38 37 36 35 32 32 32 33 31
31 33 33 34 34 34 34 33 33 32 31 32 32 33 33 33 33 33 33 33 33 33 33 33 33 33 33 33 33 33 32 32 32 32 33 33 33 32 32 33 33 33 33 33 34 35 35 34 35 35 35 34 33 33 32 33 33 33 32 32 33 34 36 38 38 38 37 37 37 36 36 35 32 28
33 33 33 34 34 34 33 34 33 32 32 32 33 33 33 32 32 32 33 33 33 32 33 33 33 33 33 33 33 33 33 32 33 32 32 33 33 33 33 33 33 33 33 33 34 34 34 34 34 35 33 33 33 32 32 33 33 33 33 32 33 33 33 34 35 36 36 35 36 36 36 35 35 36
32 32 33 32 34 34 34 33 32 32 31 32 33 33 33 32 32 33 33 33 33 33 32 32 32 33 33 33 32 31 32 33 33 33 33 33 33 33 33 33 33 33 33 33 33 33 33 33 33 34 33 33 33 33 33 34 33 32 32 32 32 33 33 33 33 33 33 33 34 35 35 36 36 35
MSLP
1019.77 1019.81 1019.85 1019.85 1019.93 1019.97 1019.93 1019.93 1019.93 1019.93 1019.89 1019.97 1020.01 1020.05 1020.13 1020.21 1020.57 1020.81 1020.81 1020.61 1020.45 1019.81 1019.65 1019.73 1019.17 1019.05 1018.93 1018.89 1018.81 1018.73 1018.65 1018.53 1018.49 1018.53 1018.53 1018.45 1018.37 1018.29 1018.29 1018.33 1018.37 1018.45 1018.53 1018.61 1018.65 1018.73 1018.73 1018.77 1018.81 1018.81 1018.85 1018.81 1018.77 1018.81 1018.93 1019.09 1019.13 1019.21 1019.33 1019.45 1019.57 1019.65 1019.77 1019.89 1020.01 1020.05 1020.09 1020.25 1020.33 1020.57 1020.81 1021.01 1021.21 1021.57
1019.85 1019.85 1019.89 1019.89 1019.93 1019.93 1019.93 1019.97 1019.93 1019.93 1019.93 1020.01 1020.05 1020.05 1020.13 1020.09 1020.37 1020.61 1020.77 1020.73 1020.25 1020.09 1019.81 1019.61 1019.69 1019.33 1019.29 1019.01 1018.85 1018.85 1018.81 1018.73 1018.69 1018.69 1018.61 1018.49 1018.37 1018.37 1018.33 1018.25 1018.29 1018.37 1018.45 1018.53 1018.57 1018.57 1018.61 1018.61 1018.57 1018.57 1018.53 1018.53 1018.57 1018.65 1018.73 1018.77 1018.89 1018.97 1019.05 1019.17 1019.33 1019.37 1019.41 1019.49 1019.61 1019.73 1019.81 1019.97 1020.09 1020.33 1020.53 1020.81 1020.93 1020.97
1019.97 1020.01 1020.09 1020.13 1020.05 1020.05 1020.05 1020.05 1020.01 1020.01 1020.01 1019.97 1020.01 1020.05 1020.01 1020.09 1020.17 1020.33 1020.49 1020.81 1020.21 1019.97 1019.93 1019.65 1019.53 1019.45 1019.25 1019.17 1019.01 1018.89 1018.85 1018.73 1018.61 1018.57 1018.49 1018.37 1018.33 1018.33 1018.29 1018.25 1018.21 1018.21 1018.25 1018.29 1018.33 1018.37 1018.33 1018.33 1018.29 1018.29 1018.25 1018.25 1018.29 1018.41 1018.53 1018.61 1018.65 1018.69 1018.73 1018.85 1018.97 1019.01 1019.01 1019.09 1019.17 1019.29 1019.49 1019.65 1019.73 1019.89 1020.17 1020.37 1020.49 1020.77
1020.13 1020.17 1020.25 1020.25 1020.21 1020.17 1020.17 1020.21 1020.21 1020.17 1020.05 1020.01 1020.01 1020.01 1020.05 1020.05 1020.09 1020.13 1020.41 1020.65 1020.53 1020.05 1020.01 1019.85 1019.57 1019.33 1019.21 1019.05 1019.01 1018.85 1018.77 1018.65 1018.61 1018.49 1018.41 1018.25 1018.17 1018.13 1018.09 1018.05 1018.05 1018.09 1018.09 1018.05 1018.05 1018.09 1018.05 1018.05 1018.09 1018.09 1018.09 1018.09 1018.09 1018.17 1018.25 1018.37 1018.45 1018.57 1018.65 1018.69 1018.73 1018.77 1018.73 1018.81 1018.97 1019.05 1019.01 1019.21 1019.45 1019.45 1019.69 1019.89 1020.13 1020.37
1020.21 1020.21 1020.25 1020.25 1020.21 1020.17 1020.25 1020.21 1020.21 1020.25 1020.25 1020.21 1020.17 1020.09 1020.13 1020.17 1020.21 1020.29 1020.45 1020.61 1020.53 1020.21 1019.93 1019.85 1019.77 1019.61 1019.49 1019.33 1019.13 1019.09 1018.93 1018.81 1018.65 1018.49 1018.37 1018.21 1018.13 1018.05 1017.97 1017.89 1017.85 1017.81 1017.77 1017.81 1017.77 1017.81 1017.97 1018.05 1018.01 1018.01 1018.01 1017.97 1017.97 1017.97 1018.05 1018.09 1018.21 1018.29 1018.41 1018.45 1018.53 1018.57 1018.61 1018.65 1018.69 1018.69 1018.73 1018.89 1018.97 1019.17 1019.25 1019.37 1019.69 1019.93
1020.21 1020.25 1020.33 1020.37 1020.29 1020.21 1020.33 1020.29 1020.33 1020.29 1020.17 1020.21 1020.21 1020.17 1020.17 1020.29 1020.25 1020.25 1020.37 1020.45 1020.49 1020.37 1020.09 1019.97 1019.81 1019.73 1019.57 1019.69 1019.37 1019.37 1019.25 1019.05 1018.85 1018.69 1018.53 1018.29 1018.13 1018.05 1017.93 1017.85 1017.73 1017.61 1017.57 1017.57 1017.65 1017.69 1017.65 1017.65 1017.65 1017.65 1017.65 1017.73 1017.81 1017.81 1017.77 1017.81 1017.89 1017.97 1018.09 1018.21 1018.29 1018.33 1018.33 1018.33 1018.37 1018.45 1018.57 1018.65 1018.73 1018.89 1019.01 1019.37 1019.53 1019.53
1020.17 1020.21 1020.29 1020.37 1020.37 1020.37 1020.37 1020.41 1020.41 1020.33 1020.29 1020.17 1020.21 1020.25 1020.29 1020.21 1020.17 1020.17 1020.17 1020.33 1020.41 1020.37 1020.29 1020.05 1020.01 1019.89 1019.77 1019.73 1019.49 1019.37 1019.25 1019.05 1018.93 1018.81 1018.57 1018.37 1018.13 1017.97 1017.85 1017.81 1017.69 1017.53 1017.45 1017.45 1017.45 1017.41 1017.41 1017.37 1017.41 1017.45 1017.45 1017.41 1017.45 1017.57 1017.73 1017.73 1017.69 1017.77 1017.81 1017.89 1017.97 1018.05 1018.09 1018.13 1018.13 1018.17 1018.21 1018.29 1018.37 1018.45 1018.61 1018.77 1019.01 1019.29
1020.13 1020.21 1020.29 1020.41 1020.45 1020.41 1020.49 1020.49 1020.49 1020.49 1020.53 1020.45 1020.45 1020.37 1020.37 1020.41 1020.49 1020.49 1020.49 1020.53 1020.65 1020.53 1020.53 1020.21 1020.17 1019.93 1019.89 1019.65 1019.45 1019.29 1019.17 1019.05 1018.89 1018.73 1018.45 1018.29 1018.13 1017.97 1017.81 1017.69 1017.57 1017.41 1017.37 1017.33 1017.21 1017.17 1017.21 1017.25 1017.29 1017.33 1017.37 1017.45 1017.41 1017.33 1017.29 1017.37 1017.49 1017.53 1017.61 1017.69 1017.77 1017.81 1017.85 1017.85 1017.89 1017.93 1017.93 1017.97 1018.01 1018.05 1018.17 1018.33 1018.53 1018.69
1020.01 1020.17 1020.21 1020.29 1020.45 1020.45 1020.57 1020.65 1020.69 1020.65 1020.69 1020.69 1020.73 1020.73 1020.73 1020.69 1020.69 1020.61 1020.61 1020.57 1020.57 1020.65 1020.61 1020.41 1020.05 1020.05 1019.93 1019.69 1019.45 1019.33 1019.25 1019.01 1018.85 1018.61 1018.45 1018.25 1018.09 1017.89 1017.69 1017.57 1017.37 1017.21 1017.17 1017.17 1017.21 1017.21 1017.17 1017.13 1017.13 1017.13 1017.17 1017.17 1017.21 1017.29 1017.33 1017.33 1017.29 1017.29 1017.33 1017.41 1017.49 1017.53 1017.53 1017.57 1017.61 1017.65 1017.69 1017.73 1017.73 1017.77 1017.81 1017.93 1018.05 1018.17
1019.89 1020.05 1020.13 1020.21 1020.37 1020.49 1020.61 1020.73 1020.69 1020.77 1020.73 1020.77 1020.85 1020.93 1021.01 1021.09 1021.05 1021.01 1020.89 1020.85 1020.77 1020.81 1020.81 1020.81 1020.49 1020.17 1020.05 1019.81 1019.61 1019.37 1019.21 1019.09 1018.85 1018.57 1018.41 1018.25 1018.09 1017.93 1017.77 1017.69 1017.57 1017.45 1017.37 1017.33 1017.25 1017.17 1017.09 1017.01 1016.97 1016.89 1016.89 1016.93 1016.93 1016.97 1016.97 1016.97 1016.97 1017.01 1017.01 1017.01 1017.05 1017.09 1017.13 1017.21 1017.29 1017.37 1017.41 1017.45 1017.49 1017.53 1017.53 1017.57 1017.61 1017.69
1019.61 1019.81 1019.97 1020.17 1020.29 1020.41 1020.53 1020.61 1020.73 1020.73 1020.85 1020.93 1021.13 1021.29 1021.33 1021.41 1021.41 1021.37 1021.33 1021.25 1021.13 1021.09 1021.01 1020.81 1020.65 1020.53 1020.17 1020.01 1019.81 1019.45 1019.33 1019.17 1019.05 1018.93 1018.61 1018.45 1018.29 1018.17 1018.05 1017.81 1017.53 1017.41 1017.29 1017.21 1017.13 1017.05 1016.97 1016.81 1016.73 1016.69 1016.65 1016.61 1016.65 1016.69 1016.69 1016.69 1016.69 1016.65 1016.57 1016.57 1016.61 1016.65 1016.69 1016.77 1016.85 1016.97 1017.09 1017.17 1017.25 1017.33 1017.33 1017.33 1017.29 1017.29
1019.37 1019.61 1019.81 1019.97 1020.09 1020.25 1020.41 1020.53 1020.69 1020.77 1020.93 1021.09 1021.09 1021.33 1021.41 1021.53 1021.57 1021.61 1021.65 1021.57 1021.57 1021.49 1021.41 1021.33 1021.09 1020.93 1020.61 1020.29 1020.21 1020.01 1019.65 1019.41 1019.29 1019.41 1019.65 1019.45 1019.09 1018.89 1018.61 1018.29 1018.01 1017.57 1017.29 1017.13 1016.93 1016.85 1016.77 1016.77 1016.69 1016.53 1016.45 1016.49 1016.53 1016.53 1016.53 1016.53 1016.49 1016.45 1016.41 1016.41 1016.37 1016.33 1016.33 1016.37 1016.41 1016.49 1016.57 1016.69 1016.81 1016.97 1017.09 1017.13 1017.17 1017.13
1019.09 1019.33 1019.57 1019.81 1020.01 1020.09 1020.29 1020.49 1020.65 1020.81 1020.97 1021.05 1021.09 1021.33 1021.49 1021.57 1021.61 1021.69 1021.73 1021.81 1021.81 1021.73 1021.69 1021.53 1021.45 1021.29 1021.01 1020.81 1020.65 1020.41 1020.13 1020.21 1020.41 1020.25 1020.13 1019.85 1019.57 1019.37 1019.01 1018.45 1018.01 1017.69 1017.65 1017.65 1017.57 1017.45 1017.29 1017.13 1016.93 1016.81 1016.69 1016.45 1016.33 1016.29 1016.29 1016.29 1016.25 1016.25 1016.25 1016.25 1016.25 1016.29 1016.33 1016.29 1016.21 1016.17 1016.21 1016.25 1016.33 1016.45 1016.57 1016.69 1016.77 1016.85
1018.85 1019.05 1019.29 1019.57 1019.77 1020.05 1020.25 1020.49 1020.69 1020.81 1020.93 1021.05 1021.17 1021.25 1021.41 1021.53 1021.61 1021.65 1021.77 1021.81 1021.93 1022.01 1021.89 1021.77 1021.73 1021.61 1021.41 1021.25 1021.05 1020.81 1020.61 1020.65 1020.41 1020.21 1020.25 1020.21 1019.89 1019.53 1019.25 1018.89 1018.41 1018.37 1018.37 1018.29 1018.25 1018.01 1017.73 1017.57 1017.21 1016.93 1016.77 1016.57 1016.45 1016.37 1016.25 1016.13 1016.09 1016.01 1015.97 1015.93 1015.89 1015.85 1015.81 1015.81 1015.85 1015.93 1015.97 1016.01 1016.09 1016.17 1016.29 1016.37 1016.45 1016.53
1018.77 1018.93 1019.01 1019.29 1019.61 1019.93 1020.25 1020.49 1020.65 1020.77 1020.89 1020.97 1021.05 1021.17 1021.29 1021.45 1021.53 1021.61 1021.73 1021.77 1021.85 1021.93 1021.89 1021.77 1021.77 1021.77 1021.61 1021.33 1021.17 1021.05 1020.93 1020.73 1020.73 1020.69 1020.61 1020.49 1020.25 1020.25 1020.25 1019.73 1018.93 1018.73 1018.89 1018.89 1018.65 1017.93 1017.69 1017.61 1017.37 1017.09 1016.93 1016.69 1016.53 1016.37 1016.21 1016.09 1016.01 1015.97 1015.85 1015.69 1015.53 1015.41 1015.33 1015.33 1015.37 1015.45 1015.53 1015.65 1015.73 1015.81 1015.89 1015.93 1016.05 1016.17
1018.65 1018.81 1018.97 1019.13 1019.37 1019.73 1020.01 1020.25 1020.49 1020.61 1020.65 1020.77 1021.01 1021.17 1021.21 1021.29 1021.53 1021.77 1021.81 1021.73 1021.85 1021.93 1021.89 1021.89 1021.85 1021.85 1021.69 1021.45 1021.29 1021.13 1020.93 1020.69 1020.69 1020.65 1020.61 1020.53 1020.53 1020.49 1020.41 1020.33 1020.01 1019.17 1019.33 1019.45 1019.17 1018.33 1017.89 1017.69 1017.49 1017.09 1016.77 1016.73 1016.61 1016.45 1016.29 1016.09 1015.77 1015.49 1015.29 1015.25 1015.29 1015.21 1015.05 1014.93 1014.89 1014.93 1015.05 1015.17 1015.29 1015.37 1015.45 1015.53 1015.65 1015.77
1018.53 1018.73 1018.93 1019.25 1019.49 1019.69 1019.89 1020.09 1020.29 1020.45 1020.61 1020.73 1020.89 1021.13 1021.49 1021.69 1021.69 1021.69 1021.81 1021.97 1021.97 1021.89 1022.05 1022.05 1021.93 1021.89 1021.65 1021.53 1021.29 1021.01 1020.81 1020.77 1020.77 1020.61 1020.57 1020.49 1020.49 1020.53 1020.45 1020.05 1019.69 1019.37 1019.45 1019.41 1019.13 1018.29 1017.69 1017.93 1017.49 1017.17 1016.57 1016.53 1016.33 1016.21 1016.09 1015.97 1015.85 1015.57 1015.29 1015.01 1014.85 1014.85 1014.81 1014.73 1014.61 1014.53 1014.57 1014.65 1014.73 1014.89 1015.01 1015.13 1015.29 1015.45
1018.41 1018.61 1018.85 1019.17 1019.45 1019.69 1019.89 1020.05 1020.25 1020.45 1020.65 1020.81 1020.93 1021.13 1021.29 1021.41 1021.45 1021.61 1021.69 1021.69 1021.85 1022.13 1022.21 1022.13 1022.01 1021.61 1021.61 1021.45 1021.17 1020.97 1020.93 1020.89 1020.77 1020.69 1020.41 1020.37 1020.33 1020.29 1020.09 1019.73 1019.65 1019.29 1019.37 1019.41 1019.09 1018.17 1017.69 1017.57 1017.21 1016.85 1016.53 1016.37 1016.01 1015.97 1015.81 1015.69 1015.49 1015.29 1015.05 1014.81 1014.53 1014.37 1014.37 1014.33 1014.25 1014.21 1014.21 1014.21 1014.29 1014.41 1014.65 1014.89 1015.09 1015.21
1018.65 1018.85 1019.09 1019.25 1019.45 1019.77 1020.01 1020.17 1020.29 1020.49 1020.65 1020.85 1021.05 1021.17 1021.21 1021.25 1021.33 1021.37 1021.41 1021.53 1021.57 1021.69 1021.89 1021.93 1021.77 1021.57 1021.49 1021.37 1021.25 1021.13 1021.01 1020.93 1020.69 1020.49 1020.33 1020.29 1020.21 1019.97 1019.65 1019.53 1019.45 1019.17 1019.09 1018.97 1019.01 1018.25 1017.49 1017.53 1017.17 1016.53 1016.45 1016.13 1015.97 1015.85 1015.57 1015.37 1015.13 1014.93 1014.65 1014.37 1014.21 1014.01 1013.81 1013.77 1013.85 1013.81 1013.85 1014.01 1014.33 1014.61 1014.77 1014.97 1015.09 1015.17
1018.73 1018.81 1019.01 1019.33 1019.53 1019.73 1019.97 1020.25 1020.37 1020.41 1020.53 1020.61 1020.73 1020.85 1020.97 1021.09 1021.13 1021.17 1021.17 1021.21 1021.29 1021.37 1021.49 1021.61 1021.69 1021.65 1021.65 1021.57 1021.49 1021.37 1021.25 1021.05 1020.89 1020.69 1020.53 1020.45 1020.29 1020.09 1019.85 1019.53 1019.21 1019.25 1018.89 1018.89 1018.89 1018.33 1017.57 1017.53 1017.17 1016.33 1016.25 1016.09 1015.93 1015.73 1015.61 1015.33 1015.05 1014.65 1014.33 1014.01 1013.81 1013.77 1013.65 1013.49 1013.37 1013.45 1013.57 1013.73 1013.93 1014.17 1014.37 1014.53 1014.65 1014.81
1018.85 1018.93 1019.13 1019.29 1019.57 1019.73 1019.97 1020.13 1020.21 1020.41 1020.57 1020.73 1020.89 1021.01 1021.09 1021.21 1021.21 1021.21 1021.21 1021.25 1021.37 1021.53 1021.61 1021.65 1021.65 1021.65 1021.57 1021.45 1021.29 1021.17 1021.05 1020.97 1020.85 1020.77 1020.69 1020.57 1020.33 1020.21 1019.93 1019.33 1019.33 1019.01 1018.89 1018.65 1018.65 1018.37 1017.69 1017.37 1017.09 1016.53 1016.37 1016.17 1015.89 1015.65 1015.37 1015.05 1014.89 1014.69 1014.33 1014.09 1013.89 1013.69 1013.57 1013.49 1013.53 1013.65 1013.73 1013.73 1013.77 1013.81 1013.93 1014.13 1014.33 1014.53
1018.73 1018.89 1019.05 1019.17 1019.33 1019.65 1020.13 1020.69 1020.97 1021.01 1020.97 1021.09 1021.29 1021.41 1021.45 1021.45 1021.45 1021.45 1021.61 1021.65 1021.61 1021.61 1021.57 1021.53 1021.41 1021.33 1021.25 1021.13 1020.97 1020.85 1020.77 1020.69 1020.65 1020.77 1020.65 1020.33 1020.37 1020.17 1020.09 1019.65 1019.29 1018.93 1018.81 1018.65 1018.49 1018.25 1017.69 1017.37 1017.09 1016.77 1016.13 1015.97 1015.65 1015.45 1015.25 1015.09 1014.89 1014.69 1014.61 1014.49 1014.29 1014.05 1013.89 1013.81 1013.77 1013.81 1013.89 1014.01 1014.05 1014.09 1014.09 1014.17 1014.33 1014.57
1019.13 1019.41 1019.77 1019.81 1019.81 1020.05 1020.57 1020.85 1021.05 1021.17 1021.21 1021.45 1021.65 1021.81 1021.77 1021.81 1021.85 1021.77 1021.85 1021.85 1021.81 1021.77 1021.73 1021.65 1021.53 1021.37 1021.29 1021.13 1021.01 1020.81 1020.65 1020.49 1020.37 1020.33 1020.17 1020.09 1020.25 1020.01 1019.77 1019.65 1019.37 1019.05 1018.49 1018.25 1018.05 1018.17 1017.49 1017.37 1016.93 1016.81 1016.53 1016.29 1015.77 1015.41 1015.33 1015.21 1015.13 1015.09 1014.97 1014.81 1014.61 1014.41 1014.21 1014.13 1014.13 1014.13 1014.17 1014.21 1014.25 1014.21 1014.25 1014.29 1014.45 1014.53
1019.49 1019.85 1020.17 1020.45 1020.45 1020.57 1020.81 1021.01 1021.17 1021.33 1021.41 1021.49 1021.69 1021.77 1021.77 1021.85 1021.81 1021.69 1021.73 1021.73 1021.77 1021.77 1021.73 1021.65 1021.53 1021.41 1021.25 1021.13 1020.93 1020.73 1020.57 1020.33 1020.17 1019.97 1019.85 1019.81 1019.77 1019.65 1019.45 1019.33 1019.21 1018.93 1018.29 1018.01 1017.93 1017.85 1017.29 1017.25 1017.13 1017.09 1017.17 1017.17 1016.41 1015.69 1015.61 1015.33 1015.33 1015.21 1015.05 1014.89 1014.61 1014.57 1014.45 1014.33 1014.29 1014.25 1014.17 1014.17 1014.13 1014.13 1014.13 1014.21 1014.33 1014.41
1019.73 1019.97 1020.49 1020.93 1020.85 1020.85 1020.97 1021.09 1021.21 1021.33 1021.41 1021.53 1021.53 1021.57 1021.61 1021.61 1021.49 1021.53 1021.65 1021.61 1021.57 1021.61 1021.53 1021.41 1021.33 1021.21 1021.05 1020.85 1020.65 1020.49 1020.33 1020.13 1019.93 1019.73 1019.61 1019.53 1019.41 1019.33 1019.17 1018.93 1018.65 1018.29 1017.89 1017.73 1017.57 1017.49 1017.29 1017.09 1017.09 1016.93 1016.85 1016.81 1016.41 1016.25 1015.77 1015.77 1015.45 1015.29 1015.13 1015.17 1015.01 1014.93 1014.77 1014.65 1014.49 1014.37 1014.29 1014.25 1014.21 1014.21 1014.21 1014.21 1014.25 1014.29
1020.09 1020.29 1020.45 1020.89 1021.05 1021.09 1021.09 1021.13 1021.21 1021.25 1021.29 1021.37 1021.49 1021.45 1021.41 1021.37 1021.41 1021.45 1021.49 1021.53 1021.53 1021.49 1021.45 1021.37 1021.25 1021.05 1020.85 1020.65 1020.41 1020.25 1020.05 1019.85 1019.61 1019.45 1019.29 1019.17 1019.01 1018.89 1018.73 1018.57 1018.33 1017.97 1017.61 1017.33 1017.21 1017.13 1016.97 1016.73 1016.73 1016.73 1016.61 1016.65 1016.13 1016.29 1016.09 1015.85 1015.61 1015.33 1015.17 1015.17 1015.09 1014.97 1014.81 1014.69 1014.61 1014.49 1014.41 1014.29 1014.25 1014.25 1014.17 1014.09 1014.09 1014.13
1020.33 1020.45 1020.69 1021.05 1021.05 1021.09 1021.13 1021.17 1021.13 1021.13 1021.17 1021.29 1021.29 1021.21 1021.21 1021.21 1021.17 1021.29 1021.41 1021.37 1021.41 1021.41 1021.29 1021.17 1021.01 1020.77 1020.57 1020.37 1020.17 1019.97 1019.73 1019.45 1019.29 1019.13 1018.97 1018.73 1018.57 1018.37 1018.21 1018.01 1017.85 1017.65 1017.33 1017.17 1017.05 1016.89 1016.77 1016.49 1016.37 1016.45 1016.33 1016.37 1016.33 1016.13 1016.21 1016.09 1015.53 1015.21 1015.21 1015.09 1015.05 1014.97 1014.93 1014.85 1014.73 1014.61 1014.49 1014.37 1014.33 1014.29 1014.05 1013.97 1014.01 1014.05
1020.61 1020.81 1021.01 1021.01 1021.05 1021.09 1021.09 1021.05 1020.97 1020.97 1021.01 1021.01 1020.93 1020.93 1020.93 1020.97 1021.05 1021.17 1021.25 1021.25 1021.17 1021.13 1021.05 1020.93 1020.65 1020.33 1020.01 1019.81 1019.61 1019.41 1019.13 1018.97 1018.81 1018.65 1018.49 1018.33 1018.13 1018.01 1017.81 1017.61 1017.41 1017.21 1017.05 1016.93 1016.81 1016.69 1016.53 1016.41 1016.25 1016.13 1016.13 1016.17 1016.21 1016.09 1015.97 1015.53 1015.57 1015.33 1015.25 1015.09 1015.05 1014.97 1014.93 1014.89 1014.81 1014.69 1014.57 1014.45 1014.21 1014.01 1014.01 1014.13 1014.25 1014.29
1020.73 1020.85 1020.85 1020.89 1020.85 1020.77 1020.69 1020.61 1020.65 1020.69 1020.65 1020.65 1020.69 1020.73 1020.73 1020.77 1020.89 1020.93 1020.93 1020.93 1020.89 1020.85 1020.61 1020.29 1019.97 1019.69 1019.49 1019.29 1019.05 1018.85 1018.69 1018.53 1018.41 1018.29 1018.13 1017.97 1017.77 1017.57 1017.41 1017.21 1017.01 1016.85 1016.69 1016.53 1016.41 1016.29 1016.21 1016.09 1016.01 1015.93 1015.93 1015.81 1015.77 1015.53 1015.65 1015.45 1015.37 1015.25 1015.21 1015.13 1015.01 1014.85 1014.89 1014.81 1014.77 1014.61 1014.53 1014.37 1014.21 1014.09 1014.17 1014.29 1014.41 1014.45
1020.73 1020.73 1020.73 1020.65 1020.61 1020.57 1020.53 1020.61 1020.73 1020.73 1020.69 1020.69 1020.73 1020.69 1020.65 1020.61 1020.57 1020.53 1020.49 1020.45 1020.41 1020.29 1020.05 1019.85 1019.69 1019.41 1019.13 1018.97 1018.77 1018.61 1018.49 1018.41 1018.29 1018.09 1017.93 1017.77 1017.53 1017.41 1017.17 1016.93 1016.61 1016.45 1016.33 1016.17 1016.01 1015.89 1015.81 1015.73 1015.69 1015.65 1015.61 1015.49 1015.49 1015.41 1015.29 1015.25 1015.05 1014.89 1014.93 1015.09 1014.89 1014.85 1014.81 1014.73 1014.69 1014.65 1014.53 1014.41 1014.33 1014.25 1014.21 1014.29 1014.41 1014.45
1020.77 1020.77 1020.69 1020.65 1020.61 1020.69 1020.73 1020.81 1020.77 1020.77 1020.77 1020.69 1020.57 1020.49 1020.45 1020.41 1020.33 1020.25 1020.17 1020.09 1020.05 1019.93 1019.73 1019.49 1019.29 1019.09 1018.93 1018.77 1018.73 1018.65 1018.53 1018.37 1018.13 1017.93 1017.73 1017.57 1017.37 1017.25 1017.01 1016.85 1016.57 1016.41 1016.13 1015.85 1015.65 1015.53 1015.45 1015.37 1015.33 1015.33 1015.37 1015.25 1015.17 1015.09 1014.97 1015.01 1014.97 1014.93 1014.69 1014.61 1014.77 1014.81 1014.45 1014.73 1014.73 1014.65 1014.57 1014.53 1014.41 1014.37 1014.33 1014.41 1014.57 1014.57
1020.93 1020.93 1020.89 1020.81 1020.85 1020.73 1020.61 1020.61 1020.61 1020.61 1020.61 1020.61 1020.61 1020.49 1020.33 1020.13 1020.09 1020.05 1019.97 1019.89 1019.81 1019.65 1019.45 1019.25 1019.05 1018.93 1018.85 1018.77 1018.61 1018.45 1018.37 1018.21 1018.01 1017.85 1017.69 1017.49 1017.21 1017.05 1016.89 1016.77 1016.49 1016.29 1016.01 1015.77 1015.45 1015.25 1015.17 1015.09 1015.01 1014.97 1014.97 1014.97 1015.01 1014.85 1014.85 1014.85 1014.85 1014.81 1014.69 1014.49 1014.45 1014.41 1014.49 1014.53 1014.65 1014.61 1014.49 1014.45 1014.45 1014.49 1014.49 1014.57 1014.73 1014.77
1020.97 1020.89 1020.69 1020.73 1020.73 1020.73 1020.69 1020.69 1020.73 1020.77 1020.69 1020.65 1020.53 1020.37 1020.21 1020.17 1020.13 1020.13 1020.05 1019.93 1019.77 1019.53 1019.37 1019.25 1019.09 1018.93 1018.77 1018.57 1018.41 1018.25 1018.13 1017.97 1017.85 1017.69 1017.57 1017.29 1017.09 1016.77 1016.69 1016.53 1016.25 1016.13 1015.93 1015.61 1015.41 1015.17 1015.05 1014.89 1014.81 1014.73 1014.73 1014.77 1014.73 1014.77 1014.85 1014.89 1014.65 1014.61 1014.65 1014.57 1014.49 1014.29 1014.29 1014.37 1014.37 1014.41 1014.49 1014.57 1014.61 1014.65 1014.61 1014.61 1014.81 1014.89
1020.73 1020.93 1020.89 1021.01 1020.89 1020.81 1020.85 1020.85 1020.93 1020.93 1020.89 1020.81 1020.69 1020.57 1020.37 1020.29 1020.21 1020.09 1020.01 1019.85 1019.65 1019.49 1019.37 1019.17 1019.01 1018.81 1018.61 1018.41 1018.25 1018.05 1017.89 1017.65 1017.53 1017.37 1017.29 1017.05 1016.85 1016.77 1016.57 1016.37 1016.05 1015.77 1015.65 1015.45 1015.21 1015.05 1014.89 1014.77 1014.69 1014.61 1014.53 1014.45 1014.37 1014.37 1014.45 1014.57 1014.41 1014.41 1014.45 1014.41 1014.25 1014.17 1014.13 1014.29 1014.29 1014.25 1014.33 1014.37 1014.53 1014.73 1014.69 1014.73 1014.89 1014.97
1021.09 1021.21 1021.05 1021.05 1020.97 1021.01 1020.97 1021.05 1021.09 1021.05 1021.05 1020.97 1020.89 1020.73 1020.57 1020.41 1020.21 1020.05 1019.97 1019.77 1019.61 1019.45 1019.29 1019.05 1018.81 1018.61 1018.45 1018.21 1018.01 1017.85 1017.61 1017.45 1017.17 1016.97 1016.81 1016.73 1016.61 1016.49 1016.29 1016.09 1015.73 1015.53 1015.37 1015.17 1014.97 1014.81 1014.81 1014.73 1014.73 1014.69 1014.57 1014.49 1014.41 1013.97 1013.93 1014.01 1014.21 1014.09 1014.09 1014.05 1014.01 1013.93 1013.93 1014.13 1014.25 1014.29 1014.37 1014.49 1014.53 1014.65 1014.77 1014.81 1014.97 1015.09
1021.13 1021.17 1021.17 1021.13 1021.13 1021.13 1021.17 1021.21 1021.21 1021.13 1021.09 1021.01 1020.89 1020.69 1020.53 1020.25 1020.05 1019.93 1019.77 1019.53 1019.41 1019.25 1019.09 1018.89 1018.61 1018.37 1018.13 1017.93 1017.69 1017.49 1017.25 1017.05 1016.85 1016.65 1016.49 1016.37 1016.21 1016.01 1015.85 1015.65 1015.41 1015.17 1015.01 1014.85 1014.69 1014.57 1014.61 1014.61 1014.65 1014.77 1014.69 1014.57 1014.57 1014.17 1013.73 1013.45 1013.57 1013.65 1013.77 1013.65 1013.53 1013.49 1013.57 1013.81 1014.01 1014.17 1014.33 1014.57 1014.61 1014.65 1014.81 1014.97 1015.13 1015.25
1021.25 1021.29 1021.21 1021.21 1021.25 1021.21 1021.21 1021.25 1021.13 1021.01 1020.85 1020.77 1020.69 1020.61 1020.45 1020.29 1019.97 1019.73 1019.45 1019.29 1019.17 1018.97 1018.77 1018.57 1018.29 1018.01 1017.77 1017.53 1017.29 1017.05 1016.85 1016.69 1016.45 1016.21 1016.05 1015.85 1015.73 1015.57 1015.41 1015.13 1014.97 1014.81 1014.69 1014.45 1014.37 1014.29 1014.37 1014.41 1014.41 1014.49 1014.45 1014.33 1014.25 1013.93 1013.49 1013.33 1013.21 1013.25 1013.33 1013.37 1013.25 1013.17 1013.37 1013.69 1013.93 1014.21 1014.25 1014.33 1014.57 1014.65 1014.73 1014.93 1015.25 1015.37
1021.13 1021.21 1021.29 1021.29 1021.25 1021.17 1021.13 1021.01 1020.93 1020.89 1020.89 1020.77 1020.65 1020.49 1020.29 1020.05 1019.81 1019.53 1019.25 1019.09 1018.85 1018.61 1018.33 1018.13 1017.85 1017.61 1017.37 1017.13 1016.93 1016.65 1016.41 1016.21 1016.01 1015.81 1015.61 1015.45 1015.33 1015.13 1014.97 1014.73 1014.49 1014.37 1014.21 1014.05 1014.01 1013.97 1014.01 1014.05 1014.13 1014.17 1014.21 1014.09 1013.93 1013.65 1013.61 1013.17 1013.17 1012.81 1012.81 1012.85 1012.89 1013.01 1013.25 1013.53 1013.85 1014.05 1014.37 1014.41 1014.57 1014.77 1014.93 1015.21 1015.49 1015.57
1021.05 1021.33 1021.37 1021.17 1021.13 1021.05 1021.09 1021.09 1021.01 1020.93 1020.77 1020.69 1020.53 1020.37 1020.13 1019.85 1019.61 1019.33 1019.09 1018.81 1018.53 1018.29 1018.01 1017.77 1017.49 1017.25 1017.01 1016.73 1016.53 1016.33 1016.09 1015.85 1015.61 1015.37 1015.13 1014.97 1014.81 1014.65 1014.45 1014.29 1014.09 1013.89 1013.89 1013.73 1013.65 1013.65 1013.73 1013.77 1013.77 1013.81 1013.81 1013.69 1013.53 1013.29 1013.17 1013.25 1013.09 1012.65 1012.61 1012.65 1012.69 1012.93 1013.17 1013.09 1013.49 1013.89 1014.17 1014.61 1015.05 1015.17 1015.41 1015.61 1015.77 1015.89
1021.33 1021.25 1021.13 1021.13 1021.09 1021.13 1021.13 1021.05 1020.97 1020.89 1020.81 1020.69 1020.53 1020.33 1020.09 1019.81 1019.45 1019.17 1018.85 1018.53 1018.25 1017.97 1017.69 1017.41 1017.09 1016.81 1016.57 1016.33 1016.09 1015.85 1015.61 1015.41 1015.17 1014.93 1014.69 1014.49 1014.29 1014.13 1013.97 1013.81 1013.65 1013.49 1013.37 1013.21 1013.17 1013.09 1013.17 1013.13 1013.17 1013.17 1013.17 1013.01 1012.81 1012.73 1012.77 1012.85 1012.77 1012.65 1012.53 1012.57 1012.57 1012.57 1012.65 1012.93 1013.25 1013.69 1014.45 1014.69 1014.77 1015.01 1015.53 1015.73 1016.13 1016.37
1021.21 1021.21 1021.25 1021.17 1021.17 1021.17 1021.17 1021.09 1020.97 1020.89 1020.77 1020.61 1020.45 1020.17 1019.89 1019.57 1019.25 1018.89 1018.61 1018.29 1018.01 1017.69 1017.37 1017.01 1016.73 1016.45 1016.17 1015.89 1015.65 1015.49 1015.21 1014.89 1014.69 1014.41 1014.21 1014.01 1013.81 1013.65 1013.49 1013.37 1013.21 1013.09 1013.01 1012.77 1012.65 1012.57 1012.49 1012.29 1012.25 1012.33 1012.45 1012.49 1012.53 1012.69 1012.81 1012.89 1012.97 1012.73 1012.45 1012.49 1012.57 1012.45 1012.49 1012.37 1012.57 1013.17 1013.93 1014.49 1014.61 1014.93 1015.37 1015.77 1016.17 1016.49
1021.33 1021.29 1021.29 1021.29 1021.33 1021.25 1021.13 1021.05 1020.93 1020.81 1020.65 1020.49 1020.25 1019.93 1019.57 1019.25 1018.93 1018.57 1018.21 1017.89 1017.61 1017.33 1017.01 1016.65 1016.33 1016.01 1015.73 1015.45 1015.21 1015.01 1014.81 1014.53 1014.21 1013.97 1013.77 1013.57 1013.33 1013.13 1013.01 1012.93 1012.77 1012.53 1012.53 1012.33 1012.13 1011.89 1011.69 1011.69 1011.81 1011.97 1012.13 1012.33 1012.49 1012.65 1012.57 1012.53 1012.61 1012.45 1012.57 1012.69 1012.65 1012.53 1012.41 1012.73 1012.89 1012.77 1013.05 1013.69 1014.21 1015.01 1015.73 1016.25 1016.29 1016.53
1021.33 1021.29 1021.41 1021.41 1021.33 1021.25 1021.17 1021.05 1020.89 1020.73 1020.53 1020.29 1019.97 1019.65 1019.33 1019.01 1018.65 1018.29 1017.93 1017.61 1017.29 1016.97 1016.65 1016.29 1015.93 1015.65 1015.33 1015.05 1014.81 1014.57 1014.37 1014.09 1013.81 1013.53 1013.29 1013.09 1012.93 1012.77 1012.53 1012.33 1012.17 1012.01 1011.93 1011.73 1011.49 1011.45 1011.45 1011.49 1011.57 1011.69 1011.85 1012.13 1012.21 1012.29 1012.29 1012.21 1012.25 1012.37 1012.65 1012.85 1013.01 1012.93 1012.93 1012.89 1013.13 1013.57 1013.81 1013.89 1013.89 1013.85 1013.89 1014.33 1015.25 1016.25
1021.37 1021.41 1021.49 1021.45 1021.41 1021.29 1021.17 1021.01 1020.81 1020.61 1020.41 1020.13 1019.81 1019.45 1019.21 1018.89 1018.49 1018.09 1017.77 1017.41 1017.05 1016.69 1016.29 1015.97 1015.61 1015.33 1015.01 1014.69 1014.41 1014.17 1013.93 1013.61 1013.33 1013.13 1012.89 1012.69 1012.49 1012.29 1012.09 1011.85 1011.69 1011.61 1011.49 1011.37 1011.29 1011.25 1011.25 1011.33 1011.37 1011.45 1011.65 1011.77 1011.89 1012.05 1012.13 1012.09 1012.21 1012.29 1012.65 1013.01 1013.17 1013.21 1013.37 1013.45 1013.69 1013.97 1014.17 1014.29 1014.33 1014.37 1014.49 1014.69 1014.69 1014.41
1021.49 1021.49 1021.53 1021.49 1021.41 1021.25 1021.09 1020.93 1020.69 1020.45 1020.25 1019.97 1019.61 1019.33 1019.01 1018.69 1018.33 1017.93 1017.49 1017.17 1016.77 1016.41 1016.05 1015.69 1015.33 1015.01 1014.69 1014.37 1014.13 1013.85 1013.45 1013.13 1012.93 1012.69 1012.49 1012.25 1012.05 1011.85 1011.65 1011.53 1011.37 1011.25 1011.13 1011.05 1011.13 1011.05 1011.05 1011.17 1011.25 1011.37 1011.41 1011.45 1011.61 1011.73 1011.81 1011.85 1012.05 1012.49 1012.81 1013.01 1013.25 1013.33 1013.45 1013.57 1013.81 1014.25 1014.57 1014.89 1014.89 1014.81 1014.93 1014.97 1014.97 1015.21
Wind_Speed
1 3 4 4 4 4 3 3 4 3 4 4 4 3 2 2 3 2 4 2 2 3 5 5 3 6 5 5 5 6 5 5 5 3 3 3 2 2 3 7 8 9 10 10 11 12 12 12 11 11 11 11 12 12 12 11 11 14 16 17 18 18 18 17 17 19 19 20 18 16 17 15 17 17
1 2 4 3 4 3 3 2 1 2 3 3 3 3 3 4 5 1 2 3 1 2 2 2 3 4 6 6 5 4 4 5 3 3 3 4 4 4 4 3 5 7 8 9 11 12 13 13 13 13 13 12 12 12 12 13 13 12 14 16 16 18 18 19 19 19 21 19 18 17 17 17 17 19
2 0 1 1 2 1 2 2 2 1 2 1 1 1 2 3 3 3 1 2 3 2 5 3 3 4 4 5 5 4 4 4 4 5 5 4 6 5 4 5 6 7 8 9 10 11 13 14 14 14 14 14 14 13 12 13 13 13 13 14 16 18 19 18 19 20 20 21 20 20 17 17 19 18
2 1 1 3 1 2 3 2 1 2 2 2 1 0 0 0 1 1 1 1 5 3 3 4 6 7 8 8 7 7 5 5 7 4 4 5 7 5 4 5 7 9 10 11 11 12 13 13 13 14 14 15 14 14 13 12 12 12 12 13 13 15 18 19 19 21 22 21 21 22 19 18 17 19
3 3 2 3 3 2 1 2 4 3 0 1 1 1 0 1 2 0 0 0 4 4 2 3 4 5 6 7 6 8 7 8 8 8 6 6 5 5 6 5 8 10 11 11 12 12 11 11 12 13 14 14 14 14 13 12 12 12 12 13 14 14 15 17 18 19 19 19 22 20 23 21 17 17
4 4 3 3 3 2 2 0 1 1 3 1 0 2 1 2 3 2 1 1 1 4 3 4 4 4 4 4 3 4 7 7 7 8 7 6 5 6 6 6 6 10 11 11 8 8 9 10 11 13 14 14 14 14 14 14 13 13 13 13 13 14 15 16 17 17 18 19 19 19 20 17 19 19
3 3 2 2 3 2 2 0 1 2 2 2 2 1 1 2 3 3 2 0 2 4 4 3 3 2 2 3 5 4 5 6 6 7 6 6 5 5 5 6 5 8 11 9 7 9 9 9 10 10 11 12 13 13 13 13 13 13 14 14 14 14 15 15 16 17 18 19 20 20 20 21 21 19
4 4 3 2 2 2 2 0 1 2 3 3 3 4 4 4 4 3 3 2 0 1 3 2 2 3 5 4 4 6 6 7 7 5 6 5 5 5 6 4 4 4 7 9 11 12 11 9 8 8 9 10 12 13 14 14 14 14 14 14 14 14 15 15 16 17 17 19 21 21 21 21 21 24
5 4 5 4 3 3 3 1 1 1 3 2 4 4 4 4 3 4 4 3 1 2 4 5 3 3 3 4 5 5 6 6 5 5 6 7 7 7 6 5 6 8 10 9 8 7 9 10 8 7 8 9 11 12 13 13 13 13 13 14 14 14 15 15 16 16 17 18 19 21 21 21 22 25
5 5 5 4 4 4 4 3 0 1 1 3 4 5 5 5 5 5 6 5 5 5 4 3 6 4 5 5 4 5 6 7 7 6 5 4 5 5 6 6 5 3 3 4 5 7 8 9 11 11 10 10 11 12 13 14 14 14 15 15 16 16 16 15 16 16 17 17 18 19 20 21 23 26
5 6 5 4 4 4 4 3 2 2 3 3 3 3 3 4 4 5 4 5 5 4 5 4 3 5 5 4 5 5 5 5 4 5 7 6 5 4 4 6 5 4 5 5 7 8 9 11 10 10 11 11 11 12 13 14 16 16 17 17 16 16 16 16 16 16 17 17 17 17 18 20 21 25
6 6 5 4 4 5 3 3 2 3 3 2 2 2 3 3 3 3 4 5 5 5 5 3 5 4 4 6 3 4 6 7 7 7 6 7 8 8 8 6 8 5 4 6 6 7 9 9 10 12 10 8 9 11 12 13 15 16 16 16 17 17 17 17 17 17 17 17 17 17 18 18 19 21
7 6 6 5 4 4 6 7 6 5 5 2 0 2 1 1 2 3 3 3 5 5 5 6 5 6 7 6 7 8 6 5 5 4 5 6 7 7 8 9 8 7 8 8 8 7 7 7 7 6 5 7 8 6 7 8 11 13 14 16 17 17 16 16 17 17 18 18 18 18 18 19 19 19
7 7 6 6 9 9 9 9 9 8 6 4 3 2 1 1 2 2 3 4 3 3 5 5 5 6 7 6 5 5 4 4 5 8 7 8 8 9 8 6 3 6 9 9 9 8 6 7 7 6 6 5 5 5 6 5 7 9 12 13 14 16 17 17 17 17 17 17 17 17 17 17 18 18
7 6 7 7 8 9 7 8 9 8 7 5 3 4 6 5 3 4 4 4 3 3 4 4 4 5 7 7 4 4 6 5 4 4 5 6 6 5 6 9 7 3 11 10 11 11 7 7 8 7 6 6 7 7 8 12 14 13 12 14 15 15 15 16 17 17 17 17 16 16 17 17 18 18
7 7 7 6 5 5 6 5 5 3 3 4 5 6 9 9 6 3 3 4 4 3 5 6 6 5 6 7 5 6 5 5 5 5 6 5 4 7 7 5 7 5 8 9 10 12 7 8 9 10 8 7 5 6 10 16 19 22 23 18 14 15 15 16 16 16 16 17 16 17 17 17 17 17
6 6 6 5 4 4 8 5 3 3 3 6 8 6 4 4 5 8 8 7 6 4 4 5 7 6 5 7 6 3 3 3 7 7 7 5 4 4 6 8 8 7 5 8 9 13 8 6 9 10 9 7 7 8 9 13 15 18 18 20 21 16 14 15 16 16 16 17 18 17 17 17 16 16
7 6 6 6 5 4 3 3 3 3 2 1 0 1 2 2 4 6 7 9 9 7 6 6 8 7 4 8 6 6 6 7 8 7 9 5 6 6 9 9 9 8 4 7 8 12 8 6 8 9 8 7 8 6 9 14 16 17 18 18 17 17 14 14 15 16 17 17 18 17 16 15 14 14
5 5 5 5 5 4 3 3 3 2 3 3 3 2 2 3 2 2 2 2 3 3 4 6 7 8 7 8 8 7 7 8 8 6 6 5 7 9 8 7 6 8 4 5 4 13 9 7 10 9 7 6 6 6 10 15 16 17 18 18 18 19 19 15 13 15 15 13 10 9 9 10 11 12
5 6 6 4 2 1 1 4 6 4 3 2 2 2 2 2 1 1 3 4 5 4 3 3 3 4 4 6 5 5 6 6 6 7 7 5 5 8 9 10 6 6 3 4 7 10 10 5 10 10 5 5 7 6 6 10 15 17 18 20 18 15 14 14 13 11 10 9 8 8 9 11 12 12
4 3 3 3 3 4 4 8 9 6 4 1 2 2 2 2 2 4 4 5 6 10 9 7 5 4 6 7 8 8 8 5 5 5 6 6 5 7 10 10 7 7 3 2 4 9 11 5 6 9 7 9 9 8 8 7 10 15 18 15 13 11 11 10 8 6 5 7 9 12 12 11 11 12
4 3 4 4 2 2 3 7 9 8 4 3 3 3 3 3 3 3 3 4 5 8 9 10 11 12 12 13 13 12 12 11 8 7 10 7 6 9 7 10 7 7 4 4 5 9 9 8 7 9 7 5 3 5 5 6 8 12 10 10 10 9 7 6 4 2 3 4 6 6 7 8 8 6
6 6 8 9 8 7 8 10 10 10 7 4 3 3 3 3 4 4 1 3 5 5 6 6 7 8 10 9 8 9 14 14 11 7 8 6 6 9 8 8 8 9 3 4 3 5 6 5 4 4 6 6 4 3 5 7 6 6 5 5 6 8 7 8 7 6 6 3 3 4 5 6 4 4
4 6 6 7 11 12 11 10 9 9 7 3 1 1 1 3 6 4 3 4 4 4 4 6 4 6 5 6 6 5 6 7 6 8 7 6 7 8 9 8 7 10 6 3 3 8 7 4 5 2 3 6 5 3 6 8 7 6 3 2 2 1 3 4 5 6 7 7 8 7 6 6 5 4
5 5 5 5 8 11 10 8 7 6 5 4 1 1 3 3 4 4 4 5 6 4 4 5 5 6 5 5 5 6 6 6 6 6 6 6 6 7 8 8 9 9 8 6 8 6 6 2 6 3 4 3 5 6 2 5 6 6 5 5 4 4 3 3 2 3 4 4 4 5 5 6 8 7
5 5 4 4 5 7 7 6 6 5 5 5 2 4 7 9 9 6 4 4 4 5 6 6 6 6 7 6 6 6 6 7 7 7 6 6 7 7 7 8 9 9 7 4 9 8 8 8 5 6 5 5 7 5 8 5 6 4 5 4 3 3 2 2 3 3 2 1 3 2 3 5 5 8
3 4 4 4 5 4 1 3 5 6 7 5 4 8 8 9 10 7 5 4 5 6 6 6 7 7 6 6 6 6 6 7 7 7 7 8 7 7 7 8 8 9 8 6 5 7 8 8 5 7 8 6 8 6 5 5 6 3 5 2 3 3 4 2 2 2 3 2 1 2 4 6 5 4
4 4 3 0 2 3 5 7 8 7 6 5 8 8 8 9 7 4 4 4 6 5 6 6 7 7 6 6 7 7 7 7 7 7 7 7 7 8 8 9 10 9 9 7 7 7 7 7 6 6 7 7 7 8 7 4 4 6 6 2 1 1 0 0 0 1 1 0 1 3 4 4 3 4
4 3 3 3 3 4 6 8 7 6 6 8 8 7 8 7 3 4 4 5 5 5 6 6 6 6 6 6 7 7 7 7 7 7 7 8 9 9 9 9 9 8 7 6 6 7 7 7 7 5 6 6 8 7 6 8 6 6 5 6 5 2 1 1 1 1 0 1 2 3 3 2 2 2
5 6 6 7 6 6 5 3 4 4 5 6 6 7 7 3 3 4 4 4 4 5 5 5 6 6 5 5 5 6 6 6 6 6 7 7 7 7 8 9 8 8 8 8 7 7 7 7 6 6 7 7 7 8 7 7 8 7 5 5 6 2 3 1 0 1 1 1 1 3 3 3 2 2
3 4 3 4 7 6 8 5 3 3 4 2 3 2 2 2 2 3 3 5 6 6 6 6 6 6 5 5 5 5 5 6 6 6 7 7 7 6 7 8 8 7 8 9 8 7 7 7 6 6 7 7 6 7 6 5 7 6 8 6 4 5 4 3 2 2 2 2 2 2 3 4 2 1
2 3 5 6 4 3 5 5 5 4 3 2 2 3 3 4 5 6 7 6 5 6 6 6 6 6 5 6 6 6 6 7 7 7 7 7 8 7 7 8 8 7 7 7 7 7 7 6 7 6 7 7 7 6 5 6 6 6 7 6 5 4 1 5 4 2 2 3 3 2 2 3 2 1
1 4 5 6 5 5 4 5 4 5 5 6 5 5 5 5 6 6 5 6 6 6 6 7 7 7 7 7 6 7 7 7 7 6 7 8 8 8 7 9 8 8 8 8 7 6 6 6 5 6 5 5 5 5 5 7 7 6 7 7 7 5 3 4 5 4 3 3 2 2 3 2 1 2
2 2 4 3 3 5 5 4 4 4 5 6 6 6 6 6 6 6 5 5 6 6 7 7 7 8 7 8 7 8 8 8 7 7 8 8 7 8 8 9 9 8 8 8 7 7 6 5 5 5 6 6 6 7 7 8 8 7 6 5 5 4 3 3 3 4 4 2 4 4 2 1 1 2
5 3 4 4 5 4 4 4 4 4 5 5 5 6 6 6 5 5 6 6 6 6 7 7 8 8 8 8 7 8 8 8 9 8 7 7 7 8 8 9 9 8 8 8 8 6 6 6 5 6 6 6 7 7 8 9 8 9 7 7 7 6 5 4 4 4 4 2 3 4 3 2 2 2
5 3 2 3 3 3 3 3 3 3 3 5 5 5 6 7 6 6 6 6 5 6 7 8 8 8 8 8 8 8 8 9 8 8 8 7 7 8 8 9 9 9 8 8 8 7 6 6 6 6 7 6 6 8 7 10 13 8 8 7 6 6 5 6 5 5 4 4 3 5 4 4 3 3
2 1 1 2 2 3 2 1 3 4 5 6 6 6 6 7 7 7 7 6 7 7 8 8 8 8 8 8 9 8 8 8 9 8 8 8 8 8 9 9 9 8 8 9 7 7 6 6 5 6 7 8 9 11 8 0 8 10 7 7 5 5 6 6 6 5 4 5 5 4 3 3 3 2
0 1 1 1 2 2 2 4 6 6 5 5 5 6 6 6 7 8 8 8 8 8 8 8 8 9 8 8 9 9 8 8 8 8 8 8 8 8 8 8 8 8 8 8 7 7 6 7 7 7 7 9 10 9 7 2 3 5 5 5 6 4 5 7 6 6 4 3 4 3 4 5 4 2
1 0 1 2 3 5 4 4 4 5 5 5 6 7 7 7 7 8 8 8 8 8 8 9 8 8 9 9 9 9 9 8 8 8 8 8 8 8 8 8 8 8 8 8 7 7 6 7 7 7 8 8 9 8 5 4 4 4 4 3 3 4 6 7 7 5 7 6 5 6 6 6 8 11
1 2 4 4 4 4 4 4 5 5 5 6 7 7 7 8 8 8 8 8 8 9 9 9 9 9 9 8 8 8 9 10 10 9 9 8 8 9 8 8 8 8 8 8 8 7 7 8 8 8 8 9 9 7 5 4 4 3 3 4 1 7 7 6 7 9 5 5 7 9 9 6 5 2
4 5 3 3 5 5 5 5 5 5 6 6 6 7 8 8 9 8 8 9 9 9 9 9 9 9 9 9 8 8 9 9 8 9 8 8 9 9 10 10 9 8 9 9 8 8 8 8 9 11 10 7 6 2 2 5 5 5 4 3 6 4 7 8 11 10 7 8 7 8 8 7 7 6
4 4 4 5 4 4 5 4 5 5 6 6 6 7 8 8 8 12 11 11 10 9 9 9 9 8 9 8 8 8 9 9 9 9 8 8 8 8 9 8 8 8 8 9 8 8 7 5 6 7 6 5 5 6 6 5 4 4 1 2 3 3 8 7 4 8 14 13 11 9 6 5 5 6
4 5 4 5 4 5 4 5 5 6 6 6 7 8 8 8 8 9 8 9 9 9 9 9 9 8 9 8 8 8 8 9 9 9 9 8 8 8 8 8 8 8 8 8 7 6 5 4 4 5 5 6 6 5 6 4 4 3 2 3 3 4 6 12 15 13 10 9 7 5 5 8 10 7
5 5 5 5 5 5 4 5 6 6 6 6 7 8 8 8 9 9 9 9 9 9 9 9 9 9 9 9 8 8 8 8 8 9 9 9 8 8 8 8 8 8 7 7 6 5 5 4 5 5 5 6 5 5 6 4 4 4 4 4 3 5 7 7 8 10 10 11 11 11 11 10 8 6
5 5 5 5 4 5 5 6 6 6 6 7 7 8 9 8 9 9 9 9 9 10 10 9 9 9 9 8 8 8 8 9 9 8 8 8 8 8 8 8 8 7 7 5 5 5 4 4 4 5 5 5 5 5 5 5 5 5 5 6 6 5 6 7 8 7 7 5 7 13 13 14 17 20
Wind_Direction
44 45 85 112 92 82 79 58 59 53 42 43 49 67 109 138 91 11 5 301 333 328 6 13 330 17 360 7 22 16 2 1 359 335 307 285 273 289 217 209 218 222 229 232 234 235 237 241 246 247 246 243 241 236 233 237 226 220 221 222 220 217 219 221 218 218 219 221 225 221 220 213 200 205
69 64 90 111 106 123 105 125 119 78 62 57 55 50 68 105 103 128 69 292 257 291 308 33 341 353 357 350 354 15 345 316 329 342 347 333 328 350 315 241 209 216 224 231 234 236 235 235 237 238 240 241 242 239 234 228 229 228 223 222 224 224 219 219 218 218 218 217 221 222 218 215 207 201
96 66 65 70 102 96 139 188 184 165 111 91 81 42 64 66 114 111 98 29 286 356 340 313 338 337 347 347 334 334 329 324 339 332 326 317 322 323 290 276 259 249 243 241 241 243 242 238 238 240 240 241 241 241 237 236 235 229 225 222 220 225 228 225 221 219 219 218 219 223 223 216 210 204
146 131 79 95 90 29 48 63 179 201 220 165 160 286 43 323 137 127 119 187 273 305 300 319 325 345 341 341 337 331 325 324 327 314 306 302 312 317 307 285 268 254 253 251 250 250 251 250 248 244 245 245 245 242 239 236 237 236 232 229 227 226 227 226 226 227 223 219 220 222 221 221 214 201
151 172 164 159 165 149 51 3 16 20 9 276 296 222 128 353 338 93 136 266 292 304 317 345 321 322 337 329 335 332 333 336 331 329 319 317 314 306 296 290 293 291 284 278 267 264 270 270 265 258 251 247 246 244 241 237 232 233 232 229 226 227 229 233 231 229 230 225 226 222 223 219 218 209
182 185 181 211 184 148 149 136 45 18 351 56 113 284 248 252 263 202 130 197 220 291 315 322 311 306 308 297 308 323 325 319 319 314 308 303 296 290 278 276 276 273 277 277 285 269 260 263 261 254 246 244 245 243 237 233 230 229 229 228 228 229 229 229 231 229 229 232 231 227 228 222 220 215
178 182 153 163 171 129 102 60 315 316 332 335 49 39 76 46 348 338 328 252 276 277 286 280 303 285 317 294 300 311 303 296 298 298 296 296 297 294 288 285 283 282 281 289 286 287 289 286 283 271 253 241 238 244 252 247 238 235 234 231 227 227 230 232 233 232 228 227 228 228 225 223 225 223
172 178 175 194 180 140 111 136 319 313 345 351 34 25 8 35 22 19 31 52 139 265 317 295 293 300 315 293 290 297 300 295 295 288 289 291 292 290 296 291 282 274 281 287 297 318 336 330 307 288 273 260 251 245 238 239 240 237 237 237 235 231 229 231 233 234 233 230 228 228 227 224 223 224
179 177 187 206 176 149 143 244 267 6 46 44 44 32 6 13 349 347 356 341 5 338 308 300 288 309 298 290 296 293 297 299 290 296 296 292 287 286 282 289 288 292 307 320 341 344 333 322 309 291 265 251 250 251 253 253 249 243 239 239 238 235 232 231 232 233 233 233 231 231 230 227 226 228
171 182 185 200 172 158 158 192 193 90 66 48 37 28 14 7 7 4 352 355 353 352 308 288 306 324 307 314 300 299 302 301 302 298 290 297 300 308 314 311 315 329 325 327 325 319 316 308 304 294 279 263 254 251 247 245 244 244 241 238 236 236 234 233 233 233 234 234 233 232 232 232 230 233
169 178 178 174 150 152 157 152 162 125 69 73 66 47 30 9 11 352 340 343 342 333 325 305 283 299 296 290 306 312 318 305 302 321 328 326 325 325 314 308 309 312 305 277 275 291 296 306 308 298 286 279 269 259 254 250 250 249 247 244 241 238 236 234 233 233 234 235 236 236 234 234 234 236
158 160 158 150 147 143 149 145 138 119 118 95 50 5 27 16 12 353 345 353 347 341 333 316 320 319 311 330 316 324 350 352 346 359 347 330 331 334 327 312 307 296 306 310 314 320 318 308 300 307 309 296 282 276 271 265 260 259 258 255 251 245 241 237 234 233 232 232 232 233 234 235 236 238
156 147 141 133 131 132 127 126 130 134 138 123 339 310 62 18 20 350 356 342 346 331 327 314 323 324 323 320 338 337 339 350 324 316 357 327 329 329 330 330 326 328 348 353 349 338 333 323 317 315 318 315 323 305 280 275 274 266 260 260 260 260 257 251 243 237 234 232 230 230 230 231 232 235
156 151 141 139 136 134 136 134 137 139 131 146 177 208 197 250 291 300 314 310 302 298 302 292 305 314 302 304 315 311 311 326 333 347 354 341 326 331 327 315 312 2 11 357 343 328 327 328 310 304 305 297 310 317 321 301 291 288 281 272 265 258 254 251 247 243 240 237 235 233 232 233 235 235
155 152 143 143 147 146 147 154 162 169 185 204 210 203 209 211 210 244 274 285 277 284 281 284 302 291 290 292 295 298 311 320 332 318 325 322 334 340 340 317 317 6 11 343 333 322 330 333 322 321 321 325 330 328 318 314 310 298 288 288 285 275 263 254 246 242 240 238 235 233 231 230 231 232
153 157 154 157 155 159 166 170 178 203 245 248 241 233 233 238 246 254 222 251 282 262 274 287 278 283 277 286 302 301 310 304 325 321 325 327 331 322 315 295 290 319 5 332 317 301 316 323 317 309 303 300 295 294 304 315 313 313 310 300 285 278 272 263 255 246 239 235 233 232 231 231 232 232
157 157 151 146 158 166 177 171 162 189 233 245 243 249 286 290 258 257 261 251 242 270 271 268 275 264 278 287 281 269 277 311 310 311 308 304 300 291 290 292 297 307 337 319 308 299 308 309 292 291 295 293 291 292 288 284 288 287 286 289 292 283 272 267 259 251 241 233 230 230 231 230 231 231
158 153 152 141 142 145 154 159 171 196 199 224 227 183 205 240 260 250 251 256 256 246 244 255 264 270 260 270 277 281 292 297 290 294 285 281 287 287 280 284 287 292 314 293 295 285 300 300 294 284 289 281 283 280 277 275 274 274 276 281 283 286 275 262 259 253 245 236 229 227 228 230 230 231
129 123 116 115 117 124 119 107 129 128 129 137 146 149 185 202 221 223 244 241 235 237 223 226 246 263 271 274 285 296 303 295 288 281 277 280 279 281 285 281 271 285 263 274 299 287 303 303 293 287 295 283 279 278 280 276 274 275 276 276 278 280 286 283 263 254 250 246 246 243 237 237 240 239
103 105 101 97 109 122 117 166 154 161 149 167 189 228 241 249 273 271 245 258 262 254 260 275 284 299 306 315 307 307 308 313 310 304 298 303 296 293 292 287 299 277 293 269 281 283 288 290 282 293 294 306 301 299 293 284 278 276 278 278 282 291 288 281 269 251 240 230 219 216 222 225 230 234
94 92 106 125 162 190 172 186 181 167 152 167 220 244 267 273 280 281 304 310 350 16 11 3 345 311 300 300 302 304 303 294 296 302 312 298 293 290 290 285 286 282 295 254 257 280 287 294 291 297 305 300 298 295 284 284 288 296 296 306 313 308 301 299 294 284 247 216 209 212 215 220 227 233
128 140 171 180 160 107 74 77 61 51 55 60 38 31 10 352 336 314 347 3 340 342 343 339 333 330 328 323 319 314 311 311 316 313 292 293 299 281 275 283 284 286 273 270 266 277 272 292 287 290 291 290 275 302 307 318 330 335 343 2 15 17 23 26 23 347 285 261 255 241 232 230 228 234
77 69 62 76 92 96 103 91 75 67 73 74 66 53 33 342 318 276 331 333 326 323 326 323 327 319 320 314 307 303 304 302 298 280 276 281 265 276 275 276 293 291 247 234 229 271 290 304 283 310 324 308 287 287 330 336 353 353 354 354 4 14 46 50 47 37 20 350 317 289 268 261 232 231
50 76 71 66 95 101 100 99 96 85 87 104 114 92 350 279 281 258 290 295 298 294 286 286 285 284 284 286 284 282 283 285 280 281 275 270 259 268 274 269 263 266 277 256 283 278 282 284 297 351 288 309 305 349 338 325 345 339 322 307 68 25 88 80 63 59 43 21 353 328 300 276 229 224
53 61 82 81 101 108 115 118 123 133 129 143 175 218 247 233 250 277 287 280 278 274 274 277 282 276 267 263 266 270 274 274 274 272 271 266 262 264 273 272 265 266 262 244 230 249 264 230 285 302 297 279 284 314 315 323 322 332 348 341 357 354 16 25 38 38 48 42 19 347 307 275 237 227
45 56 110 111 116 115 129 143 154 174 188 207 208 236 237 252 262 267 260 265 273 277 279 276 274 270 264 260 258 261 264 267 271 270 266 266 267 261 261 269 277 282 282 260 231 245 262 265 258 276 272 282 289 312 311 312 298 304 345 352 355 342 10 10 13 15 19 24 17 349 312 293 256 236
48 47 81 97 88 60 122 187 212 216 225 218 233 246 257 261 265 273 272 272 279 277 275 274 270 264 259 259 256 254 254 252 255 264 265 263 263 266 271 273 274 279 289 289 263 256 256 265 257 262 274 271 283 291 281 295 297 316 323 319 341 341 348 356 352 337 346 11 355 15 47 47 58 65
52 60 72 189 276 260 244 239 239 245 242 246 264 275 275 274 278 270 271 274 266 268 271 267 262 259 253 253 257 253 251 254 251 250 256 264 266 269 271 273 275 275 276 274 271 263 256 263 263 254 259 269 273 279 288 262 259 292 298 284 271 273 275 240 301 316 306 286 34 41 47 42 29 64
28 3 19 15 335 315 311 313 320 322 308 288 281 286 291 293 284 267 256 261 267 269 264 261 265 268 264 258 258 258 259 258 257 261 261 259 262 268 270 271 272 273 268 262 258 255 255 257 260 254 255 258 267 270 271 280 287 280 280 299 300 265 262 215 166 190 308 3 35 58 69 70 60 58
16 18 354 336 327 321 307 311 318 305 295 306 316 299 285 261 244 245 250 262 268 274 282 288 290 290 289 278 274 271 273 274 274 271 270 273 268 264 270 275 269 270 274 272 267 267 262 257 251 252 257 255 253 265 267 279 277 283 271 256 265 291 267 224 209 237 166 106 78 73 72 87 103 124
8 338 323 295 287 286 301 306 282 276 296 328 322 339 320 292 288 299 309 303 295 290 287 285 285 291 293 300 307 303 298 289 287 279 279 277 276 277 274 274 275 272 267 269 265 261 263 262 259 250 258 258 255 254 264 258 268 268 276 272 228 244 223 186 209 207 168 131 85 83 69 71 54 64
331 327 323 333 348 20 36 24 21 23 21 11 308 285 300 339 329 306 297 297 288 284 286 291 296 295 300 298 295 295 293 290 289 289 285 284 281 277 279 275 274 274 273 271 272 263 255 254 259 258 249 253 259 269 271 268 271 275 277 286 286 282 192 197 193 204 166 127 99 87 85 80 96 96
22 24 16 12 7 35 31 18 4 359 0 342 336 333 322 311 312 315 312 300 295 296 302 298 298 295 294 290 288 286 286 283 283 285 284 277 278 277 270 269 272 272 273 270 263 262 256 262 249 248 250 256 257 263 273 277 266 265 268 270 278 264 225 205 181 172 145 108 115 120 110 75 76 114
64 37 25 346 27 29 25 16 14 355 349 341 334 322 316 314 314 306 297 287 291 294 291 293 292 290 290 289 288 286 284 284 278 271 268 275 273 274 269 271 269 266 264 267 267 265 265 261 267 267 265 259 250 242 243 257 267 263 251 255 247 249 240 215 194 168 167 167 150 137 130 119 86 119
38 17 18 12 29 12 25 29 9 2 349 329 317 306 296 289 285 284 286 282 282 283 287 288 284 282 281 281 281 280 279 278 277 274 265 263 263 261 264 265 268 267 266 267 265 263 264 264 259 266 268 274 278 268 235 238 263 256 254 239 232 223 201 185 177 169 157 131 137 140 133 112 121 118
19 18 53 43 18 21 31 6 353 322 311 300 296 304 316 311 301 293 288 282 283 289 293 291 289 286 281 279 279 278 277 275 273 271 269 261 260 259 256 257 262 264 261 262 264 262 254 253 239 249 257 255 255 268 267 213 220 240 240 243 218 203 190 174 169 158 144 147 159 150 156 156 147 124
1 325 59 59 23 49 31 310 318 322 325 321 316 304 295 296 297 294 290 297 298 295 291 290 288 286 284 281 280 278 276 274 274 272 269 265 259 258 262 261 257 257 258 256 255 256 241 245 236 239 247 251 249 256 261 191 240 239 225 243 237 201 172 160 151 154 168 148 140 136 138 120 123 130
293 344 59 46 66 18 4 348 341 326 311 300 298 299 296 290 293 296 299 299 296 295 291 288 285 284 281 281 282 282 278 272 270 270 267 265 262 260 256 260 259 254 254 256 248 245 233 238 238 230 226 243 256 256 268 228 216 260 249 235 221 193 161 148 151 149 144 126 117 118 107 109 123 143
234 205 124 60 35 24 354 327 321 313 309 313 311 307 302 300 300 302 303 299 295 293 290 287 284 282 282 281 278 277 278 277 275 271 269 265 260 261 261 258 260 255 254 255 242 237 228 230 227 223 222 232 240 249 242 247 248 250 299 328 204 163 176 166 157 143 137 122 99 84 72 83 78 84
147 99 62 52 23 6 343 325 318 314 315 311 304 296 295 299 301 302 302 300 298 294 291 286 284 284 281 278 278 276 271 271 270 270 268 267 265 262 261 261 260 263 261 258 253 239 226 226 218 217 219 225 234 240 227 225 250 268 280 342 335 200 181 158 155 146 122 125 132 120 122 114 103 54
62 47 21 31 26 353 337 319 311 312 305 300 299 304 303 299 301 299 299 299 296 295 293 291 286 283 280 280 278 278 278 275 271 269 268 266 263 258 258 258 262 256 257 257 252 249 239 230 220 215 219 231 242 251 244 232 236 243 281 311 337 310 218 193 158 151 138 148 137 130 127 127 127 133
68 50 26 21 3 340 323 314 308 301 299 299 304 308 308 305 298 305 301 299 296 292 290 290 289 286 284 280 280 278 277 277 277 273 269 269 268 264 256 252 254 254 248 252 252 248 244 225 213 204 211 226 228 220 228 225 228 227 223 337 353 4 115 89 76 140 149 154 143 126 95 83 115 129
61 49 30 2 343 327 322 313 306 304 299 303 311 313 312 309 307 308 304 303 302 299 295 294 291 289 286 284 281 279 278 277 276 276 275 270 268 268 267 258 254 253 251 255 255 254 244 213 203 198 200 205 210 201 224 209 192 166 117 73 59 72 68 87 94 86 71 65 55 83 143 151 150 158
57 48 18 345 334 324 320 314 310 303 301 304 310 314 314 313 311 308 306 303 303 301 299 295 293 290 289 287 285 281 275 274 274 275 275 272 267 265 265 266 262 259 254 254 255 248 234 218 209 201 203 205 193 190 212 183 175 160 136 121 125 107 108 103 87 71 62 56 72 79 75 70 52 74
53 35 356 335 329 322 318 311 307 305 306 310 316 320 317 314 310 309 307 305 303 302 301 297 295 294 291 290 287 284 280 279 278 273 270 269 267 264 262 259 260 256 251 240 237 246 223 213 207 199 202 203 181 190 184 178 160 136 132 137 131 123 128 127 119 106 92 73 72 94 93 96 101 104